Regional Weather Roundup
Issued by NWS

Home | Current Version | Previous Version | Graphics & Text | Print | Product List | Glossary Off
Versions: 1 2 3 4 5 6 7 8 9 10 11 12 13 14 15 16 17 18 19 20 21 22 23 24 25 26 27 28 29 30 31 32 33 34 35 36 37 38 39 40 41 42 43 44 45 46 47 48 49 50

000
ASUS43 KTOP 250159
RWRKS

WEATHER ROUNDUP FOR KANSAS
NATIONAL WEATHER SERVICE GOODLAND KS
900 PM CDT SUN MAY 24 2015

NOTE:  "FAIR" INDICATES FEW OR NO CLOUDS BELOW 12,000 FEET WITH NO
SIGNIFICANT WEATHER AND/OR OBSTRUCTIONS TO VISIBILITY.

KSZ001>006-013>018-027>032-041>047-250300-
NORTHWEST KANSAS

CITY           SKY/WX    TMP DP  RH WIND       PRES   REMARKS
GOODLAND       TSTM      50  48  93 N8        29.84R
HAYS           CLOUDY    63  55  77 S9        29.79R
HILL CITY      CLOUDY    64  58  80 S8        29.79R
RUSSELL        CLOUDY    64  60  87 S14       29.78S
$$

KSZ061>065-074>080-084>089-250300-
SOUTHWEST KANSAS

CITY           SKY/WX    TMP DP  RH WIND       PRES   REMARKS
DODGE CITY     CLOUDY    61  58  90 SE15      29.78F FOG
ELKHART          N/A     66  48  52 W12         N/A
GARDEN CITY    CLOUDY    61  59  93 SE18      29.76R
GREAT BEND     CLOUDY    63  57  82 SE14      29.79F
LIBERAL        CLOUDY    66  57  72 SE14G21   29.75R THUNDER
$$

KSZ066>073-081>083-090>101-250300-
SOUTHEAST KANSAS

CITY           SKY/WX    TMP DP  RH WIND       PRES   REMARKS
CHANUTE        LGT RAIN  63  62  97 CALM      29.87R FOG
COFFEYVILLE    LGT RAIN  62  62 100 SE6       29.87R
HUTCHINSON     CLOUDY    61  58  90 S6        29.81S
NEWTON         CLOUDY    61  55  82 SE17G24   29.80F
PARSONS        LGT RAIN  65  65 100 S3        29.87S
WICHITA INTL   LGT RAIN  63  59  87 W9        29.81R
WICHITA JABRA  LGT RAIN  62  61  96 SE6       29.82S
WINFIELD       LGT RAIN  63  62  97 SE12      29.82F
$$

KSZ007>012-019>026-033>040-048>060-102>105-250300-
NORTHEAST KANSAS

CITY           SKY/WX    TMP DP  RH WIND       PRES   REMARKS
CONCORDIA      CLOUDY    64  61  90 S7        29.79R
EMPORIA        CLOUDY    62  61  96 S15       29.82F
LAWRENCE       CLOUDY    64  61  90 S3        29.81F
MANHATTAN      CLOUDY    64  61  90 SW6       29.80S
OLATHE IND     CLOUDY    64  62  93 S6        29.83R
OLATHE EXE     CLOUDY    64  61  90 S5        29.83R
SALINA         CLOUDY    65  61  87 S8        29.80S
TOPEKA BILLARD CLOUDY    65  62  90 SW3       29.81S
TOPEKA FORBES  CLOUDY    65  62  90 S6        29.81S
$$


USA.gov is the U.S. government's official web portal to all federal, state and local government web resources and services.